Location: Beverley
(50.2667°N, 107.9667°W)
Time: 23:39:35
(UTC+00:00)

Envisat - Pass Details

Date: 29 January 2022
Orbit: 764 x 765 km, 98.2° (Epoch: 22 May)

Event Time Altitude Azimuth Distance (km) Brightness Sun altitude
Rises 12:24:46 0° 13° (NNE) 3,244 6.4 -23.2°
Reaches altitude 10° 12:27:05 10° 12° (NNE) 2,313 5.6 -22.8°
Maximum altitude 12:32:11 80° 287° (WNW) 783 2.8 -22.0°
Drops below altitude 10° 12:37:15 10° 201° (SSW) 2,298 5.3 -21.2°
Sets 12:39:32 0° 200° (SSW) 3,220 6.1 -20.8°
